sat.trackr.live / text

‹ back to catalog

YAOGAN-9 01C

NORAD 36415 · 2010-009C

PAYLOAD ACTIVE UNKNOWN

§ Identity

Operator
Country
PRC
Launch date
2010-03-05
Launch site
JSC
Launch vehicle
Mass (kg)
RCS (m²)
2.66

External: N2YO · Heavens-Above · Gunter

§ Orbital elements

Epoch: 2026-05-25T03:24:08.172864Z

Period
107.01 min
Inclination
63.3669°
Eccentricity
0.0537125
Mean motion
13.45706360 rev/d
Perigee alt
687.1 km
Apogee alt
1,489.1 km
Semi-major
7,466.2 km
B*
1.1133e-4
RAAN
58.0052°
Arg perigee
21.0550°
Mean anomaly
341.1702°
Rev number
79,680

§ Raw data

YAOGAN-9 01C1 36415U 10009C   26145.14176126  .00000067  00000+0  11133-3 0  99992 36415  63.3669  58.0052 0537125  21.0550 341.1702 13.45706360796803

JSON: /api/v1/satellites/36415 · /tle

For live sub-satellite position, see the globe view (requires WebGL).

§ Visibility from observer

Set your observer location to see the next 7 days of passes ≥ 10°. The values pass through the URL so the page stays shareable.

No JS? Fill the form by hand. The geolocation button needs JavaScript.